This demonstration page uses our WeatherBlox Daily Observations layout. Learn more.

Left ArrowRight Arrow

40.92501, -98.34201

Hourly Observations for June 29, 2022

Temp ( °F °C ) Dew Point ( °F °C ) Humidity (%) Winds ( mph kmh ) Pressure ( in mb ) Visibility ( mi km ) Precip ( " mm )
12:53 am 00:53 Clear 77 25 56 13.3 48 48 SSW 14 22 30.06 1018 10 16 0.00 0.00
1:53 am 01:53 Clear 75 23.9 56 13.3 52 52 SSW 14 22 30.06 1018 10 16 0.00 0.00
2:53 am 02:53 Clear 74 23.3 56 13.3 54 54 SSW 13 20 30.06 1018 10 16 0.00 0.00
3:53 am 03:53 Clear 72 22.2 56 13.3 57 57 SSW 17 28 30.06 1018 10 16 0.00 0.00
4:53 am 04:53 Clear 71 21.7 55 12.8 57 57 SSW 16 26 30.06 1018 10 16 0.00 0.00
5:53 am 05:53 Clear 72 22.2 54 12.2 53 53 SW 18 30 30.06 1018 10 16 0.00 0.00
6:53 am 06:53 Sunny 73 22.8 53 11.7 50 50 SSW 16 26 30.06 1018 10 16 0.00 0.00
7:53 am 07:53 Sunny 75 23.9 53 11.7 46 46 SSW 14 22 30.06 1018 10 16 0.00 0.00
8:53 am 08:53 Sunny 79 26.1 55 12.8 44 44 SSW 17 28 30.06 1018 10 16 0.00 0.00
9:53 am 09:53 Sunny 83 28.3 58 14.4 43 43 SSW 18 30 30.06 1018 10 16 0.00 0.00
10:53 am 10:53 Sunny 88 31.1 60 15.6 39 39 S 18 30 30.04 1017 10 16 0.00 0.00
11:53 am 11:53 Sunny 91 32.8 59 15 34 34 SSW 20 31 30.04 1017 10 16 0.00 0.00
12:53 pm 12:53 Sunny 95 35 55 12.8 26 26 S 22 35 30.02 1017 10 16 0.00 0.00
1:53 pm 13:53 Sunny 96 35.6 51 10.6 22 22 SSW 22 35 29.99 1016 10 16 0.00 0.00
2:53 pm 14:53 Sunny 98 36.7 53 11.7 22 22 S 26 43 29.97 1015 10 16 0.00 0.00
3:53 pm 15:53 Sunny 98 36.7 50 10 20 20 S 26 43 29.96 1014 10 16 0.00 0.00
4:53 pm 16:53 Sunny 96 35.6 46 7.8 18 18 S 23 37 29.93 1014 10 16 0.00 0.00
5:53 pm 17:53 Sunny 95 35 44 6.7 17 17 S 24 39 29.93 1014 10 16 0.00 0.00
6:53 pm 18:53 Sunny 93 33.9 47 8.3 21 21 S 23 37 29.91 1013 10 16 0.00 0.00
7:53 pm 19:53 Sunny 88 31.1 49 9.4 26 26 S 20 31 29.91 1013 10 16 0.00 0.00
8:53 pm 20:53 Sunny 85 29.4 50 10 30 30 S 18 30 29.91 1013 10 16 0.00 0.00
9:53 pm 21:53 Clear 83 28.3 51 10.6 33 33 S 22 35 29.90 1013 10 16 0.00 0.00
10:53 pm 22:53 Clear 82 27.8 53 11.7 37 37 S 21 33 29.91 1013 10 16 0.00 0.00
11:53 pm 23:53 Clear 81 27.2 53 11.7 38 38 S 21 33 29.90 1012 10 16 0.00 0.00

Powered by AerisWeather